User: anonymous   Login
Location: Vancouver
(49.2500°N, 123.1330°W)
Time: 11:44:45
(UTC-08:00)
Language:

BREEZE-M DEB (TANK) - Orbit

View from above orbital plane
View from above orbital plane
View from above satellite
View from above satellite

Ground track
Ground track

The orbit data is extracted from the following two-line orbital elements,

1 27821U 03024B   16337.60330958 +.00004054 +00000-0 +42086-3 0  9999
2 27821 049.5988 091.1505 4947645 239.8183 062.3539 05.74395692269149
Epoch (UTC): 02 December 2016 14:28:45
Eccentricity: 0.4947645
inclination: 49.5988°
perigee height: 276 km
apogee height: 13308 km
right ascension of ascending node: 91.1505°
argument of perigee: 239.8183°
revolutions per day: 5.74395692
mean anomaly at epoch: 62.3539°
orbit number at epoch: 26914

The dashed part of the orbit path shows where the satellite is in the earth's shadow,  

DLR